Fremont, MI

10:54 AM EST on December 06, 2019 (GMT -0500)
Fremont

Weather History for KFFX - August, 2019

Change the Weather History Date:

Tuesday, August 27, 2019

  Actual Average (WUND) Record (WUND)
Temperature  
Mean Temperature 70 °F -  
Max Temperature 76 °F - - (-1)
Min Temperature 65 °F - - (-1)
Cooling Degree Days 6    
Growing Degree Days 20 (Base 50)    
Moisture  
Dew Point 58 °F    
Average Humidity 68    
Maximum Humidity 100    
Minimum Humidity 34    
Precipitation  
Precipitation 0.00 in - - ()
Sea Level Pressure  
Sea Level Pressure 29.76 in    
Wind  
Wind Speed 8 mph ()    
Max Wind Speed 15 mph    
Max Gust Speed 22 mph    
Visibility 9.8 miles    
Events Rain    
Averages and records for this station are not official NWS values.
T = Trace of Precipitation, MM = Missing Value Source: Averaged Metar Reports

Daily Weather History Graph

Daily Weather History Graph

Search for Another Location

Airport or City:

Astronomy

Aug. 27, 2019 Rise Set
Actual Time 7:02 AM EDT 8:28 PM EDT
Civil Twilight 6:32 AM EDT 8:57 PM EDT
Nautical Twilight 5:56 AM EDT 9:33 PM EDT
Astronomical Twilight 5:17 AM EDT 10:11 PM EDT
Moon 3:19 AM EDT (8/27) 6:54 PM EDT (8/27)
Length of Visible Light 14h 25m
Length of Day
13h 26m
Waning Crescent, 11% of the Moon is Illuminated
Aug 27
Waning Crescent
Aug 30
New
Sep 5
First Quarter
Sep 14
Full
Sep 21
Last Quarter

Hourly Weather History & Observations

Time (EDT) Temp. Dew Point Humidity Pressure Visibility Wind Dir Wind Speed Gust Speed Precip Events Conditions
12:15 AM 68.9 °F 68.9 °F 100% 29.67 in 10.0 mi SSW 11.5 mph - N/A   Overcast
12:35 AM 69.4 °F 69.4 °F 100% 29.66 in 10.0 mi SW 8.1 mph - N/A   Overcast
12:55 AM 70.0 °F 70.0 °F 100% 29.66 in 5.0 mi SW 11.5 mph 18.4 mph N/A Rain Light Rain
12:59 AM 69.8 °F 69.8 °F 100% 29.66 in 7.0 mi SW 12.7 mph 18.4 mph N/A Rain Light Rain
1:18 AM 69.8 °F 69.8 °F 100% 29.66 in 7.0 mi WSW 11.5 mph 21.9 mph N/A Rain Light Rain
1:36 AM 69.6 °F 69.6 °F 100% 29.67 in 10.0 mi WSW 11.5 mph - N/A   Overcast
1:55 AM 69.1 °F 69.1 °F 100% 29.67 in 10.0 mi WSW 10.4 mph 17.3 mph N/A   Overcast
2:15 AM 69.1 °F 69.1 °F 100% 29.67 in 10.0 mi West 8.1 mph - N/A   Overcast
2:39 AM 68.5 °F 68.5 °F 100% 29.68 in 10.0 mi WSW 9.2 mph - N/A   Overcast
2:57 AM 68.2 °F 68.2 °F 100% 29.68 in 10.0 mi WSW 6.9 mph - N/A   Overcast
3:15 AM 68.0 °F 68.0 °F 100% 29.68 in 10.0 mi WSW 9.2 mph - N/A   Overcast
3:35 AM 67.6 °F 67.6 °F 100% 29.69 in 10.0 mi WSW 9.2 mph - N/A   Overcast
3:55 AM 67.3 °F 67.3 °F 100% 29.69 in 10.0 mi SW 4.6 mph - N/A   Overcast
4:18 AM 67.1 °F 67.1 °F 100% 29.70 in 10.0 mi WSW 4.6 mph - N/A   Overcast
4:36 AM 67.3 °F 67.3 °F 100% 29.70 in 10.0 mi WSW 5.8 mph - N/A   Overcast
4:55 AM 67.1 °F 67.1 °F 100% 29.70 in 10.0 mi WSW 5.8 mph - N/A   Overcast
5:15 AM 67.1 °F 67.1 °F 100% 29.71 in 10.0 mi WSW 4.6 mph - N/A   Overcast
5:39 AM 67.1 °F 67.1 °F 100% 29.71 in 10.0 mi SW 5.8 mph - N/A   Overcast
5:57 AM 66.7 °F 66.7 °F 100% 29.72 in 10.0 mi SW 4.6 mph - N/A   Overcast
6:15 AM 66.6 °F 66.6 °F 100% 29.72 in 10.0 mi SW 5.8 mph - N/A   Overcast
6:16 AM 66.6 °F 66.6 °F 100% 29.72 in 10.0 mi SW 6.9 mph - N/A   Overcast
6:35 AM 66.2 °F 66.2 °F 100% 29.72 in 5.0 mi SW 6.9 mph - N/A   Heavy Drizzle
6:36 AM 66.2 °F 66.2 °F 100% 29.72 in 5.0 mi SW 5.8 mph - N/A   Drizzle
6:55 AM 66.2 °F 66.2 °F 100% 29.72 in 10.0 mi SW 3.5 mph - N/A   Overcast
7:18 AM 66.2 °F 66.2 °F 100% 29.73 in 10.0 mi SW 4.6 mph - N/A   Overcast
7:36 AM 66.0 °F 66.0 °F 100% 29.73 in 10.0 mi SW 4.6 mph - N/A   Overcast
7:55 AM 65.8 °F 65.8 °F 100% 29.73 in 10.0 mi WSW 4.6 mph - N/A   Scattered Clouds
7:56 AM 66.0 °F 66.0 °F 100% 29.73 in 10.0 mi WSW 3.5 mph - N/A   Scattered Clouds
8:15 AM - - N/A% 29.74 in 10.0 mi WSW 4.6 mph - N/A   Scattered Clouds
8:16 AM - - N/A% 29.74 in 10.0 mi WSW 4.6 mph - N/A   Scattered Clouds
8:39 AM - - N/A% - - North - - N/A   Unknown
8:57 AM 68.4 °F 64.4 °F 87% 29.74 in 10.0 mi West 6.9 mph - N/A   Mostly Cloudy
9:15 AM 69.1 °F 64.0 °F 84% 29.75 in 10.0 mi WSW 8.1 mph - N/A   Mostly Cloudy
9:35 AM 69.3 °F 60.8 °F 74% 29.75 in 10.0 mi West 8.1 mph - N/A   Mostly Cloudy
9:55 AM 69.3 °F 59.5 °F 71% 29.75 in 10.0 mi WSW 8.1 mph - N/A   Overcast
10:18 AM 70.3 °F 57.9 °F 65% 29.76 in 10.0 mi West 9.2 mph - N/A   Mostly Cloudy
10:36 AM 70.5 °F 57.6 °F 63% 29.76 in 10.0 mi WSW 11.5 mph 17.3 mph N/A   Mostly Cloudy
10:55 AM 71.2 °F 57.6 °F 62% 29.77 in 10.0 mi WSW 11.5 mph 17.3 mph N/A   Overcast
10:56 AM 71.4 °F 57.6 °F 62% 29.77 in 10.0 mi WSW 9.2 mph 17.3 mph N/A   Overcast
11:15 AM 72.1 °F 57.2 °F 59% 29.77 in 10.0 mi West 10.4 mph 17.3 mph N/A   Mostly Cloudy
11:16 AM 72.1 °F 57.0 °F 59% 29.77 in 10.0 mi West 12.7 mph 17.3 mph N/A   Mostly Cloudy
11:39 AM 72.9 °F 57.0 °F 57% 29.77 in 10.0 mi West 11.5 mph 18.4 mph N/A   Scattered Clouds
11:57 AM 72.5 °F 56.8 °F 58% 29.78 in 10.0 mi WSW 8.1 mph - N/A   Scattered Clouds
12:15 PM 74.5 °F 54.7 °F 50% 29.78 in 10.0 mi SW 11.5 mph 17.3 mph N/A   Mostly Cloudy
12:35 PM 73.8 °F 54.5 °F 51% 29.78 in 10.0 mi WSW 11.5 mph 17.3 mph N/A   Mostly Cloudy
12:55 PM 74.3 °F 54.5 °F 50% 29.78 in 10.0 mi WSW 12.7 mph 18.4 mph N/A   Mostly Cloudy
1:18 PM 75.2 °F 54.3 °F 48% 29.78 in 10.0 mi WSW 6.9 mph 18.4 mph N/A   Mostly Cloudy
1:36 PM 75.2 °F 51.8 °F 44% 29.78 in 10.0 mi WSW 9.2 mph 20.7 mph N/A   Mostly Cloudy
1:55 PM 75.4 °F 49.6 °F 40% 29.78 in 10.0 mi West 12.7 mph - N/A   Scattered Clouds
1:56 PM 75.2 °F 49.3 °F 40% 29.78 in 10.0 mi West 13.8 mph - N/A   Scattered Clouds
2:15 PM 76.1 °F 48.7 °F 38% 29.78 in 10.0 mi West 10.4 mph 16.1 mph N/A   Scattered Clouds
2:39 PM 76.1 °F 49.6 °F 39% 29.78 in 10.0 mi WSW 11.5 mph 18.4 mph N/A   Scattered Clouds
2:57 PM 75.9 °F 49.1 °F 39% 29.78 in 10.0 mi WSW 11.5 mph 17.3 mph N/A   Scattered Clouds
3:15 PM 76.1 °F 49.8 °F 40% 29.78 in 10.0 mi SW 12.7 mph - N/A   Scattered Clouds
3:16 PM 76.1 °F 50.0 °F 40% 29.79 in 10.0 mi SW 10.4 mph - N/A   Scattered Clouds
3:35 PM 76.6 °F 48.2 °F 37% 29.79 in 10.0 mi SW 15.0 mph 18.4 mph N/A   Scattered Clouds
3:36 PM 76.5 °F 47.7 °F 36% 29.79 in 10.0 mi SW 13.8 mph 18.4 mph N/A   Scattered Clouds
3:55 PM 76.5 °F 49.1 °F 38% 29.79 in 10.0 mi WSW 11.5 mph - N/A   Scattered Clouds
4:00 PM 76.5 °F 49.1 °F 38% 29.79 in 10.0 mi WSW 9.2 mph - N/A   Scattered Clouds
4:18 PM 76.1 °F 47.8 °F 37% 29.79 in 10.0 mi West 10.4 mph - N/A   Scattered Clouds
4:36 PM 76.3 °F 49.1 °F 38% 29.79 in 10.0 mi WSW 10.4 mph 17.3 mph N/A   Scattered Clouds
4:55 PM 76.1 °F 48.2 °F 37% 29.79 in 10.0 mi West 10.4 mph 16.1 mph N/A   Scattered Clouds
4:56 PM 75.9 °F 48.2 °F 37% 29.79 in 10.0 mi West 9.2 mph 16.1 mph N/A   Scattered Clouds
5:15 PM 76.1 °F 46.0 °F 34% 29.79 in 10.0 mi SW 13.8 mph 17.3 mph N/A   Scattered Clouds
5:16 PM 76.1 °F 45.9 °F 34% 29.79 in 10.0 mi SW 13.8 mph 17.3 mph N/A   Scattered Clouds
5:39 PM 76.1 °F 46.0 °F 34% 29.80 in 10.0 mi WSW 10.4 mph 18.4 mph N/A   Clear
5:57 PM 75.9 °F 47.1 °F 36% 29.79 in 10.0 mi WSW 8.1 mph - N/A   Clear
6:15 PM 75.7 °F 48.6 °F 38% 29.79 in 10.0 mi SW 12.7 mph 18.4 mph N/A   Clear
6:16 PM 75.7 °F 48.4 °F 38% 29.79 in 10.0 mi SW 13.8 mph 18.4 mph N/A   Clear
6:35 PM 75.4 °F 49.5 °F 40% 29.79 in 10.0 mi SW 10.4 mph - N/A   Clear
6:36 PM 75.2 °F 49.3 °F 40% 29.79 in 10.0 mi SSW 11.5 mph 16.1 mph N/A   Clear
6:55 PM 74.8 °F 50.2 °F 42% 29.78 in 10.0 mi SW 8.1 mph - N/A   Clear
7:18 PM 74.3 °F 50.2 °F 43% 29.79 in 10.0 mi SW 10.4 mph - N/A   Clear
7:36 PM 72.9 °F 51.1 °F 46% 29.78 in 10.0 mi SSW 6.9 mph - N/A   Clear
7:55 PM 70.5 °F 52.7 °F 53% 29.78 in 10.0 mi SSW 4.6 mph - N/A   Clear
7:56 PM 70.3 °F 52.9 °F 54% 29.79 in 10.0 mi SSW 4.6 mph - N/A   Clear
8:15 PM 70.7 °F 53.4 °F 54% 29.79 in 10.0 mi SW 3.5 mph - N/A   Mostly Cloudy
8:16 PM 70.7 °F 53.4 °F 54% 29.79 in 10.0 mi WSW 3.5 mph - N/A   Mostly Cloudy
8:39 PM 69.8 °F 55.4 °F 60% 29.80 in 10.0 mi Calm Calm - N/A Rain Light Rain
8:57 PM 68.4 °F 57.0 °F 67% 29.80 in 10.0 mi Calm Calm - N/A   Overcast
9:15 PM 67.8 °F 57.0 °F 68% 29.80 in 10.0 mi South 3.5 mph - N/A   Mostly Cloudy
9:16 PM 68.0 °F 57.0 °F 68% 29.80 in 10.0 mi Calm Calm - N/A   Mostly Cloudy
9:35 PM 66.6 °F 59.7 °F 79% 29.81 in 10.0 mi Calm Calm - N/A   Scattered Clouds
9:36 PM 66.6 °F 59.9 °F 79% 29.81 in 10.0 mi South 3.5 mph - N/A   Scattered Clouds
9:55 PM 67.1 °F 59.9 °F 78% 29.81 in 10.0 mi Calm Calm - N/A   Scattered Clouds
10:00 PM 66.6 °F 61.2 °F 83% 29.82 in 10.0 mi SW 3.5 mph - N/A   Mostly Cloudy
10:17 PM 67.1 °F 61.0 °F 81% 29.82 in 10.0 mi Calm Calm - N/A   Scattered Clouds
10:36 PM 66.0 °F 61.0 °F 84% 29.82 in 10.0 mi SW 4.6 mph - N/A   Scattered Clouds
10:55 PM 67.8 °F 59.7 °F 75% 29.82 in 10.0 mi WSW 6.9 mph - N/A   Mostly Cloudy
11:15 PM 67.8 °F 53.6 °F 60% 29.82 in 10.0 mi West 6.9 mph - N/A   Mostly Cloudy
11:16 PM 67.8 °F 53.6 °F 60% 29.82 in 10.0 mi West 5.8 mph - N/A   Mostly Cloudy
11:39 PM 66.4 °F 50.9 °F 57% 29.83 in 10.0 mi West 9.2 mph - N/A   Mostly Cloudy
11:57 PM 66.2 °F 47.5 °F 51% 29.83 in 10.0 mi West 11.5 mph 17.3 mph N/A   Scattered Clouds